EW4120 Weather Reports


time (UTC)temp
C
wind
direction
speed
KPH
gust
KPH
rain 1hr
cm
rain 24hr
cm
rain mn
cm
humidity
%
barometer
mb
20260507020636 19 0.0 0.0 0.00 0.00 0.00 95 1013.2
20260507015536 18 0.0 0.0 0.00 0.00 0.00 94 1012.7
20260507014516 18 0.0 0.0 0.00 0.00 0.00 94 1012.2
20260507013536 18 0.0 0.0 0.00 0.00 0.00 93 1012.1
20260507012536 19 0.0 0.0 0.00 0.00 0.00 93 1012.3
20260507011536 19 0.0 0.0 0.00 0.00 0.00 93 1012.5
20260507010516 19 0.0 0.0 0.00 0.00 0.00 92 1012.5
20260507005516 19 0.0 0.0 0.00 0.00 0.00 91 1012.6
20260507004636 20 0.0 0.0 0.00 0.00 0.00 91 1012.7
20260507003618 20 0.0 0.0 0.00 0.00 0.00 89 1012.4
20260507002538 20 0.0 0.0 0.00 0.00 0.00 88 1012.3
20260507001558 20 0.0 0.0 0.00 0.00 0.00 87 1012.4
20260507000618 20 0.0 0.0 0.00 0.00 0.00 85 1012.0
20260506235517 21 0.0 0.0 0.00 0.00 0.00 84 1012.2
20260506234518 21 0.0 1.6 0.00 0.00 0.00 84 1012.3
20260506233538 21 0.0 1.6 0.00 0.00 0.00 83 1012.2
20260506232538 21 0.0 0.0 0.00 0.00 0.00 83 1012.2
20260506231538 21 0.0 1.6 0.00 0.00 0.00 82 1012.3
20260506230658 21 293 1.6 3.2 0.00 0.00 0.00 81 1012.4
20260506225517 21 248 1.6 6.4 0.00 0.00 0.00 81 1012.6
20260506224517 22 0.0 3.2 0.00 0.00 0.00 81 1012.7
20260506223557 22 248 1.6 9.7 0.00 0.00 0.00 80 1012.8
20260506222537 22 0.0 3.2 0.00 0.00 0.00 80 1012.9
20260506221517 22 225 1.6 11.3 0.00 0.00 0.00 79 1013.0
20260506220537 22 293 1.6 8.0 0.00 0.00 0.00 79 1013.0
20260506215557 22 248 1.6 6.4 0.00 0.00 0.00 78 1012.7
20260506214517 22 0.0 4.8 0.00 0.00 0.00 78 1012.8
20260506213517 22 270 1.6 9.7 0.00 0.00 0.00 77 1012.5
20260506212517 22 270 1.6 12.9 0.00 0.00 0.00 77 1012.1
20260506211537 23 293 1.6 6.4 0.00 0.00 0.00 77 1012.1
20260506210617 23 293 1.6 9.7 0.00 0.00 0.00 78 1012.5
20260506205618 22 315 1.6 8.0 0.00 0.00 0.00 76 1012.5
20260506204537 22 90 1.6 4.8 0.00 0.00 0.00 77 1012.8
20260506203517 23 113 1.6 6.4 0.00 0.00 0.00 76 1012.9
20260506202517 22 293 1.6 11.3 0.00 0.00 0.00 78 1013.0
20260506201537 22 90 1.6 6.4 0.00 0.00 0.00 79 1013.0
20260506200517 22 315 1.6 8.0 0.00 0.00 0.00 80 1012.8
20260506195517 21 293 3.2 11.3 0.00 0.00 0.00 80 1012.8
20260506194617 22 315 1.6 9.7 0.00 0.00 0.00 80 1012.8
20260506193517 21 293 3.2 12.9 0.00 0.00 0.00 80 1012.9
20260506192537 21 315 3.2 12.9 0.00 0.00 0.00 82 1012.6
20260506191537 20 315 1.6 6.4 0.00 0.00 0.00 83 1012.7
20260506190517 20 293 3.2 12.9 0.00 0.00 0.00 82 1013.2
20260506185517 21 293 3.2 12.9 0.00 0.00 0.00 82 1013.4
20260506184517 21 293 1.6 9.7 0.00 0.00 0.00 82 1013.3
20260506183537 20 0.0 8.0 0.00 0.00 0.00 85 1012.8
20260506182517 20 315 1.6 4.8 0.00 0.00 0.00 84 1012.9
20260506181557 20 315 1.6 6.4 0.00 0.00 0.00 84 1013.5
20260506180517 20 293 1.6 12.9 0.00 0.00 0.00 84 1014.3
20260506175517 20 293 1.6 8.0 0.00 0.00 0.00 84 1014.4
20260506174517 20 0.0 3.2 0.00 0.00 0.00 84 1014.8
20260506173517 20 270 1.6 6.4 0.00 0.00 0.00 80 1015.0
20260506172537 21 0.0 1.6 0.00 0.00 0.00 79 1015.0
20260506171557 20 0.0 0.0 0.00 0.00 0.00 80 1014.9
20260506170617 20 0.0 1.6 0.00 0.00 0.00 79 1014.8
20260506165537 21 0.0 0.0 0.00 0.00 0.00 80 1014.8
20260506164537 21 315 1.6 6.4 0.00 0.00 0.00 78 1014.7
20260506163517 20 0.0 3.2 0.00 0.00 0.00 78 1014.8
20260506162537 20 0.0 6.4 0.00 0.00 0.00 77 1014.9
20260506161537 20 0.0 4.8 0.00 0.00 0.00 79 1014.8
20260506160517 20 315 1.6 11.3 0.00 0.00 0.00 78 1014.8
20260506155517 20 293 1.6 6.4 0.00 0.00 0.00 77 1014.8
20260506154517 20 315 1.6 8.0 0.00 0.00 0.00 78 1014.3
20260506153617 20 315 1.6 4.8 0.00 0.00 0.00 78 1014.2
20260506152517 19 0.0 3.2 0.00 0.00 0.00 78 1014.3
20260506151517 19 0.0 8.0 0.00 0.00 0.00 78 1014.5
20260506150517 19 315 1.6 9.7 0.00 0.00 0.00 77 1014.3
20260506145517 19 293 1.6 6.4 0.00 0.00 0.00 78 1014.4
20260506144516 19 315 1.6 8.0 0.00 0.00 0.00 77 1014.5
20260506143537 19 0.0 6.4 0.00 0.00 0.00 77 1014.5
20260506142637 19 293 1.6 14.5 0.00 0.00 0.00 76 1014.3
20260506141537 19 315 1.6 6.4 0.00 0.00 0.00 76 1014.3
20260506140536 19 315 1.6 6.4 0.00 0.00 0.00 77 1014.4
20260506135536 18 0.0 4.8 0.00 0.00 0.00 77 1014.2
20260506134516 18 315 1.6 6.4 0.00 0.00 0.00 77 1014.2
20260506133536 18 45 1.6 6.4 0.00 0.00 0.00 78 1014.3
20260506132617 18 315 1.6 8.0 0.00 0.00 0.00 78 1014.0
20260506131516 18 293 3.2 12.9 0.00 0.00 0.00 79 1013.9
20260506130557 17 293 1.6 8.0 0.00 0.00 0.00 79 1013.9
20260506125516 17 270 1.6 8.0 0.00 0.00 0.00 79 1014.4
20260506124536 17 0.0 3.2 0.00 0.00 0.00 80 1014.4
20260506123616 17 315 1.6 8.0 0.00 0.00 0.00 80 1014.5
20260506122516 17 0.0 6.4 0.00 0.00 0.00 81 1014.7
20260506121616 17 270 1.6 4.8 0.00 0.00 0.00 81 1014.7
20260506120536 17 293 1.6 4.8 0.00 0.00 0.00 81 1014.6
20260506115516 16 315 1.6 9.7 0.00 0.00 0.00 81 1014.6
20260506114516 16 293 1.6 8.0 0.00 0.00 0.00 81 1014.5
20260506113516 16 293 1.6 6.4 0.00 0.00 0.00 82 1014.4
20260506112516 16 293 1.6 6.4 0.00 0.00 0.00 82 1014.4
20260506111516 16 0.0 1.6 0.00 0.00 0.00 82 1014.4
20260506110516 16 0.0 6.4 0.00 0.00 0.00 82 1014.2
20260506105616 16 0.0 3.2 0.00 0.00 0.00 82 1014.0
20260506104536 16 0.0 3.2 0.00 0.00 0.00 82 1013.8
20260506103536 16 315 1.6 4.8 0.00 0.00 0.00 81 1013.8
20260506102536 16 315 1.6 6.4 0.00 0.00 0.00 81 1013.9
20260506101516 16 0.0 4.8 0.00 0.00 0.00 80 1013.9
20260506100516 16 315 1.6 11.3 0.00 0.00 0.00 81 1013.5
20260506095516 16 315 1.6 4.8 0.00 0.00 0.00 80 1013.8
20260506094556 16 315 1.6 8.0 0.00 0.00 0.00 80 1013.9
20260506093616 16 0.0 4.8 0.00 0.00 0.00 80 1014.1
20260506092636 16 315 1.6 11.3 0.00 0.00 0.00 80 1013.9
20260506091556 16 293 1.6 6.4 0.00 0.00 0.00 79 1014.2
20260506090536 17 315 1.6 6.4 0.00 0.00 0.00 79 1014.3
20260506085516 17 315 1.6 6.4 0.00 0.00 0.00 78 1014.4
20260506084516 17 315 3.2 14.5 0.00 0.00 0.00 78 1014.4
20260506083536 17 315 1.6 6.4 0.00 0.00 0.00 78 1014.3
20260506082516 17 293 1.6 11.3 0.00 0.00 0.00 78 1014.4
20260506081616 17 0.0 4.8 0.00 0.00 0.00 77 1014.3
20260506080637 17 315 1.6 8.0 0.00 0.00 0.00 77 1014.5
20260506072536 17 315 1.6 6.4 0.00 0.00 0.00 78 1014.3
20260506071516 17 315 1.6 8.0 0.00 0.00 0.00 78 1014.2
20260506070556 17 315 1.6 6.4 0.00 0.00 0.00 78 1014.3
20260506062516 17 315 1.6 8.0 0.00 0.00 0.00 76 1014.8
20260506061556 17 315 1.6 6.4 0.00 0.00 0.00 76 1014.8
20260506060516 17 315 1.6 6.4 0.00 0.00 0.00 75 1014.7
20260506050518 18 293 3.2 9.7 0.00 0.00 0.00 71 1014.8
20260506044538 18 315 1.6 6.4 0.00 0.00 0.00 69 1015.1
20260506043517 18 315 3.2 12.9 0.00 0.00 0.00 68 1015.0
20260506042517 18 315 1.6 6.4 0.00 0.00 0.00 67 1015.0
20260506041517 18 0.0 3.2 0.00 0.00 0.00 66 1015.0
20260506040517 18 0.0 6.4 0.00 0.00 0.00 66 1014.9
20260506035536 18 293 1.6 6.4 0.00 0.00 0.00 65 1014.8
20260506034516 18 0.0 6.4 0.00 0.00 0.00 66 1014.7
20260506033636 18 0.0 3.2 0.00 0.00 0.00 65 1014.5
20260506032536 18 0.0 1.6 0.00 0.00 0.00 64 1014.5
20260506031536 18 0.0 0.0 0.00 0.00 0.00 64 1014.5
20260506030516 18 0.0 1.6 0.00 0.00 0.00 63 1014.7
20260506025556 18 0.0 3.2 0.00 0.00 0.00 63 1014.7
20260506024556 18 0.0 1.6 0.00 0.00 0.00 62 1014.8
20260506023516 18 0.0 3.2 0.00 0.00 0.00 62 1015.0
20260506022516 19 0.0 1.6 0.00 0.00 0.00 61 1014.9
20260506021656 19 0.0 6.4 0.00 0.00 0.00 61 1015.0